Regional Weather Roundup
Issued by NWS

Home | Current Version | Previous Version | Graphics & Text | Print | Product List | Glossary On
Versions: 1 2 3 4 5 6 7 8 9 10 11 12 13 14 15 16 17 18 19 20 21 22 23 24 25 26 27 28 29 30 31 32 33 34 35 36 37 38 39 40 41 42 43 44 45 46 47 48 49 50
382
ASUS45 KBOU 102107
RWRCO

WEATHER ROUNDUP FOR COLORADO
NATIONAL WEATHER SERVICE DENVER/BOULDER CO
200 PM MST WED FEB 10 2016

NOTE: "FAIR" INDICATES FEW OR NO CLOUDS BELOW 12000 FEET WITH NO
SIGNIFICANT WEATHER AND/OR OBSTRUCTIONS TO VISIBILITY.

COZ001>005-013-030-031-102200-
...NORTHWEST COLORADO...

CITY           SKY/WX    TMP DP  RH WIND       PRES   REMARKS
CRAIG          MIX PCPN  27  19  72 SW5       30.35F WCI  22
HAYDEN         CLOUDY    27  18  69 CALM      30.34S
MEEKER         CLOUDY    37  18  46 CALM      30.33F
MOUNT WERNER   NOT AVBL
STEAMBOAT SPGS CLOUDY    29  16  59 CALM      30.34S
WALDEN         SUNNY     41  18  38 E6        30.31F
$$

COZ006>008-011-102200-
...WEST CENTRAL VALLEYS...

CITY           SKY/WX    TMP DP  RH WIND       PRES   REMARKS
GRAND JUNCTION SUNNY     37  28  70 NW7       30.39F
MONTROSE       SUNNY     43  23  45 CALM      30.37F
EAGLE          SUNNY     37  18  44 CALM      30.38F
RIFLE          SUNNY     37  19  48 CALM      30.38F
DELTA          SUNNY     47  23  38 W3        30.38F
NUCLA          SUNNY     45  21  39 CALM      30.42F
$$

COZ017>023-064>068-102200-
...SOUTHWEST COLORADO...

CITY           SKY/WX    TMP DP  RH WIND       PRES   REMARKS
DURANGO        SUNNY     44  17  33 E6        30.38F
CORTEZ         SUNNY     48  22  35 CALM      30.39F
PAGOSA SPRINGS SUNNY     51   9  18 S6        30.39F
TELLURIDE      SUNNY     50  -3  11 W8        30.45F
WOLF CREEK PAS SUNNY     37   0  20 SW9       30.54F
$$

COZ009-010-012-014-032>034-037-058>063-102200-
...CENTRAL COLORADO...

CITY           SKY/WX    TMP DP  RH WIND       PRES   REMARKS
ASPEN          SUNNY     42  16  34 NW7       30.35F
BUENA VISTA    CLOUDY    55  11  17 W9G17     30.30F
COPPER MTN     CLOUDY    37  -8  14 W31G37    30.43F
BERTHOUD PASS  FAIR      30  19  64 W43G55    30.37F WCI  13
COTTONWOOD PAS CLOUDY    50 -17   6 W16G32    30.37F
GUNNISON       CLOUDY     9   0  66 CALM      30.51F
KREMMLING      CLOUDY    18   5  57 CALM      30.41F
LEADVILLE      CLOUDY    42   3  19 W22G30    30.36F
MONARCH PASS   SUNNY     32   1  27 W33G39    30.56F WCI  17
SALIDA         NOT AVBL
SUNLIGHT       SUNNY     41  14  33 CALM      30.48F
WILKERSON PASS CLOUDY    41   1  19 W9        30.42F
$$

COZ069>075-102200-
...SAN LUIS VALLEY/SANGRE DE CRISTO MOUNTAINS...

CITY           SKY/WX    TMP DP  RH WIND       PRES   REMARKS
ALAMOSA        SUNNY     45  14  28 CALM      30.36F
LA VETA PASS   SUNNY     45  10  24 S9G20     30.40S
SAGUACHE       SUNNY     45  18  33 S5        30.38F
$$

COZ035-036-038>040-102200-
...NORTHERN COLORADO FRONT RANGE...

CITY           SKY/WX    TMP DP  RH WIND       PRES   REMARKS
DENVER INTL AP MOSUNNY   65  17  15 NW17      30.09F
DMNS CITY PARK   N/A     67   5   8 W18G28    30.10S
AURORA         NOT AVBL
FRONT RANGE AP MOSUNNY   61  25  25 MISG      30.10
ERIE MUNI ARPT CLOUDY    65  14  14 NW8       30.09S
BOULDER MUN AP CLOUDY    64  12  13 W28G39    30.07F
CENTENNIAL     PTSUNNY   63   8  11 NW17G25   30.11F
BROOMFIELD     NOT AVBL
FORT COLLINS   SUNNY     63  19  19 CALM      30.06F
LONGMONT       SUNNY     64  14  14 W7        30.10S
$$

COZ041-046-047-076>085-087-088-102200-
...PIKES PEAK/PALMER DIVIDE AND SOUTHERN FOOTHILLS...

CITY           SKY/WX    TMP DP  RH WIND       PRES   REMARKS
COLO. SPRINGS  MOSUNNY   63   5  10 NW15      30.16F
A. F. ACADEMY  NOT AVBL
SCHRIEVER AFB  FAIR      58  15  19 NW3       30.17F
ELLICOTT       SUNNY    N/A N/A N/A W5        30.16F
FALCON         NOT AVBL
FORT CARSON    SUNNY     58  22  24 SE8       30.13F
LIMON          SUNNY     47  27  45 W9        30.10F
MONUMENT HILL  SUNNY     50  19  29 NW8       30.21S
TRINIDAD       SUNNY     71  -2   5 N13       30.16F
$$

COZ042>045-048>051-090-091-102200-
...NORTHEAST COLORADO...

CITY           SKY/WX    TMP DP  RH WIND       PRES   REMARKS
GREELEY ARPT   SUNNY     59  30  33 SW8       30.05F
AKRON          SUNNY     54  29  38 W6        30.04F
BURLINGTON     SUNNY     53  30  41 NW10      30.03F
WRAY           NOT AVBL
STERLING       SUNNY     61  34  36 NW15      30.00F
HOLYOKE        SUNNY     59  30  33 NW12G20   30.00F
FORT MORGAN    SUNNY     57  31  36 NW8       30.04S
$$

COZ086-089-092>099-102200-
...SOUTHEAST COLORADO...

CITY           SKY/WX    TMP DP  RH WIND       PRES   REMARKS
PUEBLO         SUNNY     75   8   7 W17G26    30.10F
LA JUNTA       SUNNY     75  21  13 W13       30.07F
LAMAR          SUNNY     75  21  13 W13       30.03F
SPRINGFIELD      N/A     74   5   7 NW12      30.08F
$$




USA.gov is the U.S. government's official web portal to all federal, state and local government web resources and services.